Weather History for KAAT - September, 2012

Change the Weather History Date:

Saturday, September 29, 2012

  Actual Average Record
Temperature  
Mean Temperature 61 °F 52 °F  
Max Temperature 85 °F 73 °F 94 °F (1967)
Min Temperature 37 °F 31 °F 19 °F (1961)
Degree Days  
Heating Degree Days 4 13  
Month to date heating degree days 107 251  
Since 1 July heating degree days 150 362  
Cooling Degree Days 0 0  
Month to date cooling degree days 7 3  
Year to date cooling degree days 224 154  
Growing Degree Days 10 (Base 50)    
Moisture  
Dew Point 30 °F    
Average Humidity 45    
Maximum Humidity 76    
Minimum Humidity 13    
Precipitation  
Precipitation 0.00 in 0.02 in 0.67 in (1977)
Month to date precipitation T 0.50  
Year to date precipitation 5.96 9.64  
Sea Level Pressure  
Sea Level Pressure 30.11 in    
Wind  
Wind Speed 3 mph (WNW)    
Max Wind Speed 18 mph    
Max Gust Speed 23 mph    
Visibility 10 miles    
Events      
T = Trace of Precipitation, MM = Missing Value Source: NWS Daily Summary

Daily Weather History Graph

Daily Weather History Graph

Search for Another Location

Airport or City:

Trip Planner

Search our weather history database for the weather conditions in past years. The results will help you decide how hot, cold, wet, or windy it might be!

Date:

Astronomy

Sep. 29, 2012 Rise Set
Actual Time 6:57 AM PDT 6:46 PM PDT
Civil Twilight 6:29 AM PDT 7:14 PM PDT
Nautical Twilight 5:57 AM PDT 7:46 PM PDT
Astronomical Twilight 5:25 AM PDT 8:18 PM PDT
Moon 6:20 PM PDT 6:34 AM PDT
Length of Visible Light 12h 44m
Length of Day
11h 48m
Full, 100% of the Moon is Illuminated
Sep 29
Full
Sep 29
Full
Oct 8
Last Quarter
Oct 15
New
Oct 21
First Quarter

Hourly Weather History & Observations

Time (PDT) Temp. Dew Point Humidity Pressure Visibility Wind Dir Wind Speed Gust Speed Precip Events Conditions
12:55 AM 51.1 °F 32.0 °F 48% 30.04 in 10.0 mi Calm Calm - N/A   Clear
1:55 AM 46.9 °F 34.0 °F 61% 30.06 in 10.0 mi Calm Calm - N/A   Clear
2:55 AM 44.1 °F 30.9 °F 60% 30.06 in 10.0 mi Calm Calm - N/A   Clear
3:55 AM 39.0 °F 28.9 °F 67% 30.09 in 10.0 mi Calm Calm - N/A   Clear
4:55 AM 41.0 °F 30.9 °F 67% 30.09 in 10.0 mi Calm Calm - N/A   Clear
5:55 AM 39.9 °F 30.9 °F 70% 30.12 in 10.0 mi Calm Calm - N/A   Clear
6:55 AM 37.9 °F 30.0 °F 73% 30.15 in 10.0 mi Calm Calm - N/A   Clear
7:55 AM 42.1 °F 28.9 °F 60% 30.17 in 10.0 mi Calm Calm - N/A   Clear
8:55 AM 55.0 °F 34.0 °F 45% 30.15 in 10.0 mi Calm Calm - N/A   Clear
9:55 AM 62.1 °F 34.0 °F 35% 30.13 in 10.0 mi Calm Calm - N/A   Clear
10:55 AM 70.0 °F 35.1 °F 28% 30.12 in 10.0 mi Calm Calm - N/A   Clear
11:55 AM 75.9 °F 34.0 °F 22% 30.10 in 10.0 mi Calm Calm - N/A   Clear
12:55 PM 82.0 °F 30.9 °F 16% 30.08 in 10.0 mi NW 9.2 mph - N/A   Clear
1:55 PM 82.9 °F 30.9 °F 15% 30.07 in 10.0 mi WNW 5.8 mph 17.3 mph N/A   Clear
2:55 PM 82.9 °F 26.1 °F 13% 30.06 in 10.0 mi WNW 13.8 mph 20.7 mph N/A   Clear
3:55 PM 82.0 °F 26.1 °F 13% 30.07 in 10.0 mi WNW 15.0 mph 20.7 mph N/A   Clear
4:55 PM 82.9 °F 26.1 °F 13% 30.06 in 10.0 mi West 11.5 mph - N/A   Clear
5:55 PM 78.1 °F 28.0 °F 16% 30.08 in 10.0 mi NNW 10.4 mph - N/A   Clear
6:55 PM 72.0 °F 30.0 °F 21% 30.12 in 10.0 mi NNW 5.8 mph - N/A   Clear
7:55 PM 66.9 °F 28.9 °F 24% 30.14 in 10.0 mi Calm Calm - N/A   Clear
8:55 PM 61.0 °F 28.9 °F 30% 30.15 in 10.0 mi Calm Calm - N/A   Clear
9:55 PM 55.9 °F 32.0 °F 40% 30.17 in 10.0 mi Calm Calm - N/A   Clear
10:55 PM 54.0 °F 27.0 °F 35% 30.17 in 10.0 mi Calm Calm - N/A   Clear
11:55 PM 46.9 °F 28.9 °F 50% 30.18 in 10.0 mi Calm Calm - N/A   Clear